Regional Weather Roundup
Issued by NWS Newport/Morehead, NC

Home | Current Version | Previous Version | Text Only | Print | Product List | Glossary On
Versions: 1 2 3 4 5 6 7 8 9 10 11 12 13 14 15 16 17 18 19 20 21 22 23 24 25 26 27 28 29 30 31 32 33 34 35 36 37 38 39 40 41 42 43 44 45 46 47 48 49 50
000
ASUS42 KMHX 032225
RWRMHX
WEATHER ROUNDUP FOR EASTERN NORTH CAROLINA
NATIONAL WEATHER SERVICE NEWPORT/MOREHEAD CITY NC
600 PM EDT SUN MAY 03 2015

NOTE: "FAIR" INDICATES FEW OR NO CLOUDS BELOW 12,000 FEET
WITH NO SIGNIFICANT WEATHER AND/OR OBSTRUCTIONS TO VISIBILITY

NCZ015>017-031-032-045>047-102-103-032300-
NORTH COAST

CITY           SKY/WX    TMP DP  RH WIND       PRES   REMARKS
EDENTON        MOSUNNY   76  49  37 CALM      30.15S
ELIZABETH CITY MOSUNNY   75  48  38 S9        30.14R
KITTY HAWK     PTCLDY    75  44  32 S3        30.14S
MANTEO         SUNNY     72  48  42 S10       30.16S

$$

NCZ045>047-081-094-103-104-032300-
CENTRAL COAST

CITY           SKY/WX    TMP DP  RH WIND       PRES   REMARKS
FRISCO         SUNNY     67  57  70 SW5       30.17S
SWANQUARTER      N/A     73 N/A N/A S6G13     30.12S

$$

NCZ095-097-098-100-101-032300-
SOUTHERN COAST

CITY           SKY/WX    TMP DP  RH WIND       PRES   REMARKS
BEAUFORT       SUNNY     71  53  52 SW10      30.18R
CEDAR ISLAND     N/A     77 N/A N/A S8G14     30.21S
JACKSONVILLE   SUNNY     75  41  29 S10       30.16R
PINEY ISLAND   CLEAR    N/A N/A N/A S8        30.17S
WILMINGTON     SUNNY     74  40  29 SE12      30.17S


$$

NCZ011>013-027>030-043-044-078>080-089-090>093-098-032300-
COASTAL PLAIN

CITY           SKY/WX    TMP DP  RH WIND       PRES   REMARKS
AHOSKIE        MOSUNNY   75  48  37 CALM      30.14S
CLINTON        SUNNY     79  46  31 N5        30.16S
ELIZABETHTOWN  MOSUNNY   78  42  26 W3        30.15S
GOLDSBORO      SUNNY     78  44  29 CALM      30.14R
GREENVILLE     MOSUNNY   75  46  35 CALM      30.17R
HAVELOCK       PTSUNNY   74  41  30 S7        30.17S
KENANSVILLE    MOSUNNY   77  38  24 CALM      30.16S
KINSTON        MOSUNNY   79  39  24 CALM      30.16
NEW BERN       PTSUNNY   76  44  32 S9        30.17R
RICHLANDS      SUNNY     77  43  29 S12       30.17S
ROCKY MOUNT    MOSUNNY   73  50  44 CALM      30.15S
WASHINGTON     MOSUNNY   76  45  32 W6        30.16S
WHITEVILLE     SUNNY     76  44  32 S8        30.16S

$$

AMZ130-135-150-152-154-156-158-170-250-252-270-ANZ085-086-088-633-658-670-032300-
MARINE OBSERVATIONS

STATION/POSITION TIME  TEMP    WIND        PRES    WAVE   SWELL
                       AIR SEA DIR/SP/G            HT/PER HT/PER
                 (UTC) (F)     (DEG/KT/KT) (MB)    (FT/S) (FT/S)
CHESAPEAKE LIGHT 2200   67     180/ 12/ 13 1020.9
64 E VA BEACH    2150   63 63  180/  4/  4 1020.6    5/12   5/12
DUCK             2200   75 54  190/  5/  8 1019.8
2 E DUCK         2111      60                N/A     4/11   2/11
OREGON INLET     2200   68 64  180/  7/  8 1021.4
13E OREGON INLT  2200      55                N/A     5/10   3/11
HATTERAS CG      2200   71 64  190/  2/  5 1021.4
DIAMOND BUOY     2150   66 62  220/  4/  6 1022.0    4/ 9   5/ 9
CAPE LOOKOUT     2200   71     200/  8/ 10 1021.8
BEAUFORT LAB     2200   70 65  200/  9/ 11 1021.2
27 SE WRIGHTSVLE 2200   69 73  180/  8/  8   N/A
5 SE WRIGHTSVLE  NOT AVBL
225 S CAPE HAT   2150   69 70   30/ 14/ 19 1022.3    9/11   8/11
41 SE CHARLESTON 2150   71 78  120/  4/  6 1021.5    3/10   2/10

$$


USA.gov is the U.S. government's official web portal to all federal, state and local government web resources and services.